Aérodrome :
LOGIN :

S'inscrire | Disclaimer

   EN    FR    IT 

 










Légende :    VFR   VFR Marginal   IFR   IFR Intensif   IFR Très Intensif
Visi : 
Plafond : 
>= 8 km
>= 3000ft
5 à 8 km
1000 à 3000 ft
1500m à 5 km
500 à 1000 ft
800 à 1500m
200 à 500 ft
< 800m
< 200 ft
Symboles :   Orages  Brouillard  Fortes neiges  Fortes précipitations  Vent > 20 kt
SIGMETs :   Divers  Orages  Givrage  Turbulence  Onde Orograph.  Cendres Volcan.







- Altitude de l'aérodrome : 465 ft
- Code IATA : LEJ


EDDP - Leipzig Halle

DERNIER METAR :
  • 191120Z 21004KT 170V270 CAVOK 03/M03 Q1021 NOSIG

METARs EXPIRÉS :
  • 191050Z 21004KT 160V240 CAVOK 02/M03 Q1021 NOSIG
  • 191020Z 20006KT 170V230 CAVOK 02/M03 Q1021 NOSIG
  • 190950Z 20006KT CAVOK 01/M03 Q1021 NOSIG
  • 190920Z 20006KT CAVOK 01/M03 Q1022 NOSIG
  • 190850Z 19007KT CAVOK 00/M03 Q1022 NOSIG

TAF TAF EDDP
Valide du 19 à 06h jusqu'au 20 à 06h UTC


190500Z 1906/2006 18006KT CAVOK
BECMG 1912/1914 10005KT
BECMG 1922/1924 04005KT
Pas de NOTAMs connus pour ce terrain.



MET'MAP, la Météo Aéronautique d'un coup d'oeil ! - Copyright ORBIFLY Décembre 2007 - Disclaimer

ORBIFLY MET'MAP TEAM :

Programmation & Développement : Alexandra Zaïnal
Conception & Développement : Baudouin d'Aumeries
Co-Programmation & Développement : Marc-Olivier Méhu
Soutien technique & logistique : Manuel Goepfert

Contact : metmap@orbifly.com




SOURCES & CREDITS :

   NOAA